Theta_e
314 312 311 311 312 312 312 312 312 312 311 311 312 313 313 313 314 314 313 311 311 311 311 310 310 312 308 308 308 307 306 306 302 304 308 310 313 310 310 311 310 312 311
314 311 311 312 312 312 312 312 313 312 312 309 311 311 312 312 315 312 310 310 309 309 309 309 308 308 312 310 306 310 308 308 304 304 307 307 310 312 311 311 310 309 309
313 311 312 312 312 312 312 313 313 312 312 310 310 310 311 311 311 311 310 310 310 310 309 309 310 308 309 306 307 306 305 305 305 303 303 306 307 306 307 308 310 311 308
313 311 311 312 312 312 313 314 312 313 313 310 309 310 309 307 306 307 308 310 310 310 311 311 310 308 306 305 303 306 305 304 305 303 303 303 304 308 307 305 303 305 304
312 310 311 312 313 313 312 313 313 313 313 311 308 309 309 306 302 305 308 310 310 310 310 307 309 307 306 304 301 303 305 302 301 301 301 300 301 302 305 304 303 302 304
311 310 310 312 313 312 312 312 313 313 312 311 308 309 309 304 299 299 302 310 309 309 307 307 306 307 305 303 303 303 304 305 303 303 302 301 303 305 304 304 302 299 297
311 311 311 312 310 310 311 310 311 312 314 311 309 309 310 307 298 298 300 307 308 307 307 306 304 303 304 301 301 303 304 305 306 305 303 303 302 304 304 301 301 300 298
309 310 311 310 308 309 310 309 311 313 312 310 309 310 310 307 298 297 299 310 308 308 308 307 306 305 301 299 301 302 303 304 306 303 303 304 304 304 302 301 301 302 301
309 310 308 308 308 307 307 309 311 312 311 310 310 309 309 310 298 296 299 308 306 306 307 306 305 304 296 296 300 301 302 302 302 302 301 300 299 299 300 299 296 296 294
310 307 307 307 307 307 309 310 312 311 310 309 308 310 306 309 298 296 299 304 305 303 309 305 298 300 296 295 300 301 300 301 301 301 303 303 303 302 301 299 298 295 294
309 309 309 309 309 310 311 313 312 311 311 311 310 312 312 311 309 298 296 304 304 303 303 303 305 297 296 295 295 302 301 300 301 302 301 301 301 301 299 299 301 298 294
309 309 310 311 311 310 311 313 313 313 312 312 312 311 310 312 304 299 298 296 302 304 304 305 305 297 295 294 297 298 295 296 301 299 298 297 295 295 296 297 298 299 300
309 310 311 311 311 312 312 312 310 314 310 309 307 307 308 309 310 299 297 296 296 301 305 303 298 295 296 298 297 297 296 301 300 296 294 294 294 294 295 296 298 300 300
310 311 311 310 311 312 311 311 309 308 308 307 306 306 306 307 308 308 307 306 301 303 305 305 302 301 297 300 301 302 302 301 298 295 293 293 294 293 293 295 296 296 296
311 311 311 310 311 310 312 311 309 313 306 305 305 305 304 304 305 299 299 303 304 300 297 304 304 304 302 301 301 301 301 299 294 293 292 291 292 292 293 295 295 294 293
309 309 309 308 309 309 309 310 300 299 298 296 295 299 307 300 293 292 292 292 291 291 301 303 303 301 300 300 299 299 300 296 294 292 292 291 291 291 291 292 295 295 294
310 311 310 306 308 309 309 309 307 306 297 295 294 293 292 294 293 292 292 291 291 294 304 303 301 300 299 300 300 299 298 296 294 292 291 291 291 292 291 292 294 294 294
312 302 308 309 309 309 309 308 308 307 307 308 299 297 293 292 292 292 292 293 306 300 302 301 299 299 300 300 300 298 298 295 293 292 291 292 292 292 292 293 295 295 294
310 310 311 310 310 308 308 309 308 308 308 307 308 301 298 294 293 292 293 305 303 301 302 300 300 299 299 300 300 299 298 294 292 292 291 292 292 293 293 294 294 291 291
311 303 303 309 309 310 309 308 308 308 308 307 306 306 306 303 305 304 305 304 302 302 301 300 299 300 300 300 299 299 295 293 292 292 291 291 292 293 294 294 294 293 294
310 311 305 308 309 309 308 308 308 308 307 306 306 302 289 304 304 304 303 302 301 300 300 299 299 300 300 300 299 296 293 292 292 291 290 290 291 292 294 295 296 297 298
310 310 310 309 309 309 308 309 308 307 304 303 304 303 292 304 304 304 303 301 300 301 302 300 299 300 300 300 298 294 291 290 290 289 288 289 291 293 295 297 298 300 300
310 310 309 309 310 304 308 308 306 303 302 303 303 303 303 303 303 302 301 300 302 300 301 300 300 300 301 300 296 293 290 289 288 288 288 290 293 297 301 301 301 302 302
309 310 309 309 308 308 308 305 303 298 301 301 302 302 302 301 302 302 300 301 301 300 301 301 301 301 301 296 294 292 292 289 288 289 291 292 296 298 302 304 304 303 303
309 309 309 308 308 307 304 302 302 302 301 301 301 301 301 301 301 301 301 301 300 300 301 301 301 302 298 294 291 289 287 285 287 287 295 301 303 306 305 305 304 302 302
309 311 309 308 305 303 302 301 301 300 300 300 299 300 300 300 300 299 300 299 300 300 301 301 301 301 295 293 289 286 286 286 289 286 292 302 307 305 303 303 303 301 301
Wind_Speed
8 6 4 3 1 5 6 7 7 7 8 8 8 8 8 7 8 7 6 7 7 7 7 9 9 8 9 10 9 9 8 11 11 11 12 10 9 9 7 7 11 10 8
8 4 5 2 5 5 5 5 5 6 8 8 7 7 7 7 4 7 8 8 9 8 10 10 10 9 10 10 11 11 10 10 8 13 9 12 9 15 5 9 7 12 6
7 5 2 4 3 3 3 3 4 5 7 8 7 7 8 10 12 12 11 10 10 10 10 11 11 9 10 11 12 11 11 9 11 10 11 11 9 5 9 11 7 10 6
6 4 3 3 3 4 4 4 4 5 6 7 6 6 6 9 10 11 11 10 9 10 11 10 8 9 11 12 12 13 12 13 12 11 11 10 8 7 6 8 8 11 9
6 4 2 0 0 3 5 5 4 4 5 6 6 6 6 9 8 9 9 8 9 9 10 11 12 11 10 14 11 13 13 12 12 11 11 12 11 10 9 8 7 9 10
5 5 1 3 2 3 3 5 5 4 4 5 5 5 6 8 7 8 9 12 9 6 8 10 11 14 14 17 17 21 20 12 13 11 9 13 13 11 10 9 10 9 11
6 6 4 2 4 3 4 4 4 4 4 4 4 5 5 7 7 10 13 10 8 8 8 7 10 10 13 15 18 20 17 14 6 9 12 12 13 12 13 13 13 12 11
6 5 3 2 4 3 3 3 3 3 3 3 2 3 5 6 5 9 16 10 7 10 7 6 8 10 11 12 16 16 15 16 15 12 13 13 13 13 13 11 13 12 10
8 5 2 2 1 2 3 2 2 2 2 2 1 3 4 4 4 6 11 14 10 12 10 6 6 8 6 6 13 16 16 15 14 12 14 16 11 8 7 6 8 8 9
7 5 5 4 3 4 2 2 1 4 3 5 3 2 0 6 6 1 5 9 10 10 11 7 6 6 6 9 11 14 17 16 16 16 14 8 6 10 5 5 4 7 8
6 6 5 5 3 2 2 2 3 4 4 4 5 6 8 7 5 10 6 6 7 9 11 9 9 6 8 11 14 13 13 14 15 11 13 10 11 9 9 5 9 6 7
7 6 6 5 5 2 3 5 5 5 8 10 9 10 4 6 13 13 12 11 5 7 11 9 11 11 15 13 11 17 18 13 9 11 11 11 8 9 9 10 10 9 8
7 7 5 4 5 4 5 6 8 9 9 8 7 7 6 6 7 12 11 11 12 10 6 10 14 11 14 12 9 14 9 10 12 11 9 9 8 7 9 9 8 10 9
8 6 5 5 4 4 7 7 6 7 7 7 8 9 10 10 8 5 5 5 9 8 7 13 12 15 10 8 10 13 8 11 11 9 9 8 8 7 7 7 7 7 8
7 5 4 6 7 6 8 5 5 5 4 7 8 9 9 10 8 5 5 8 8 9 11 11 6 7 7 10 10 12 8 12 8 8 7 7 6 7 7 7 6 6 6
6 6 5 4 4 5 4 6 10 10 9 12 14 10 8 6 8 3 1 7 8 7 9 9 14 9 8 11 11 10 9 12 7 7 6 6 7 7 7 7 6 5 7
6 5 3 3 7 5 5 6 7 5 15 14 16 10 9 14 12 8 7 8 7 2 9 9 11 10 9 11 9 9 10 10 9 7 8 7 7 6 7 7 6 7 7
6 2 6 7 5 6 5 7 7 7 7 8 7 10 9 13 11 7 8 6 8 5 4 9 10 9 8 10 10 10 9 9 7 7 7 7 7 6 6 6 7 7 8
6 6 6 6 6 5 7 9 7 7 8 8 7 6 9 12 8 9 5 5 7 10 10 9 9 7 10 11 11 10 11 9 7 7 7 7 8 7 6 6 6 7 7
6 4 4 7 8 8 5 6 7 8 8 8 8 10 10 10 7 4 2 7 11 9 9 12 10 10 12 12 12 11 10 10 8 7 7 7 7 7 6 7 6 5 5
5 6 8 7 9 5 5 7 8 8 9 9 7 7 5 8 8 10 10 11 9 10 10 9 10 10 11 11 13 11 10 9 8 7 7 7 7 7 7 6 6 6 5
7 4 6 9 5 4 7 7 8 9 10 9 8 4 2 7 10 10 11 10 8 10 9 10 10 11 11 12 12 9 9 8 8 7 7 7 7 7 6 6 6 6 6
5 5 6 5 3 1 3 8 9 8 8 7 8 8 9 9 8 9 8 7 9 9 10 8 9 11 12 11 9 8 7 7 7 7 8 8 8 7 8 7 7 7 6
6 4 4 4 6 7 8 7 7 4 6 8 7 8 8 7 7 10 9 9 8 8 8 7 8 15 14 11 8 9 7 7 7 7 10 7 8 10 8 8 6 7 7
5 2 2 4 7 8 6 6 6 6 7 7 7 7 8 7 11 10 8 11 8 9 9 9 10 15 15 14 14 15 13 12 10 9 8 10 12 10 9 8 8 7 8
4 3 5 7 6 5 6 5 7 7 7 7 7 7 7 8 7 6 6 7 9 8 11 10 14 18 18 12 15 16 14 13 12 12 9 10 6 10 7 6 10 6 7
Wind_Direction
79 83 99 64 267 44 32 30 25 26 16 12 11 10 15 24 27 17 1 28 17 5 11 1 4 358 355 350 342 357 356 341 342 331 328 335 8 304 321 308 293 293 303
83 104 86 173 60 60 40 38 26 25 25 17 12 11 3 14 8 15 1 359 1 0 7 355 355 1 359 4 341 355 331 330 308 308 315 311 345 311 284 284 333 314 338
112 132 224 86 71 43 25 23 19 9 30 22 6 14 17 16 12 1 2 357 360 5 3 346 12 21 13 354 338 338 328 336 317 308 309 285 287 51 326 292 306 312 300
137 127 132 70 32 4 345 341 345 350 32 18 5 18 12 36 20 360 354 348 0 359 7 358 10 14 6 356 340 328 333 318 306 304 307 310 301 308 303 326 335 311 322
148 167 127 92 172 20 359 340 330 326 22 12 10 32 8 54 24 351 336 337 4 16 4 1 7 51 39 13 343 334 315 319 314 313 315 314 330 352 327 332 309 300 316
154 170 90 251 293 8 346 339 332 341 20 11 17 28 22 56 9 333 333 321 22 9 3 1 349 22 356 358 341 324 305 302 315 315 315 321 324 323 329 317 306 312 310
172 166 186 284 298 306 305 336 358 342 11 8 3 8 27 48 7 343 332 318 336 356 5 354 353 4 14 352 339 318 328 315 293 306 302 322 321 328 328 319 316 318 321
207 149 197 267 281 255 319 357 338 2 357 8 352 2 358 86 37 350 330 326 351 348 336 351 356 356 21 349 333 336 331 341 336 337 329 313 307 326 321 315 311 302 304
195 154 154 163 184 89 66 42 357 340 336 282 340 345 13 4 92 5 337 318 14 338 341 350 7 15 353 325 325 335 332 340 333 318 294 282 281 298 301 311 307 316 314
165 149 152 146 138 113 91 70 2 301 87 320 337 336 212 296 159 149 330 325 344 342 324 98 128 27 341 302 312 319 319 337 333 322 317 313 312 357 268 257 287 316 318
141 167 165 168 179 177 233 263 301 302 337 297 290 271 250 242 220 192 204 294 333 327 319 322 350 16 312 305 309 306 302 314 317 321 337 340 340 333 333 343 330 316 302
184 182 177 196 254 160 259 282 278 267 257 253 242 258 245 225 214 190 200 226 272 288 309 320 341 333 309 290 296 293 299 296 353 341 339 338 338 329 323 317 309 295 274
189 200 209 216 249 248 262 277 273 235 246 280 303 310 314 319 315 176 205 222 238 253 307 302 287 287 282 292 296 310 287 4 355 345 338 333 331 319 308 299 298 293 298
194 205 215 227 253 280 293 278 288 310 321 316 332 335 337 334 353 24 314 267 255 275 306 324 339 321 301 330 2 333 358 22 356 348 332 325 321 315 308 302 310 326 313
202 210 225 225 201 263 244 278 296 310 323 316 313 324 317 323 354 1 332 312 329 339 323 305 315 312 334 356 335 338 10 18 359 334 320 317 313 316 316 325 313 315 295
194 210 235 288 267 252 280 289 213 242 220 219 237 240 275 308 41 56 308 299 297 300 306 339 317 2 358 354 330 333 23 18 343 326 318 315 319 320 317 313 301 298 311
253 320 265 245 262 280 303 294 316 233 233 239 240 230 219 286 303 323 310 314 277 254 287 334 352 3 350 328 334 342 26 5 332 325 321 317 319 307 317 319 324 331 326
227 74 280 284 296 287 310 320 296 301 316 325 230 224 211 238 258 270 274 294 325 253 332 0 1 353 337 336 330 6 20 346 332 321 316 319 314 307 308 321 325 336 336
223 245 227 248 282 326 280 279 302 326 333 329 7 141 197 238 196 229 234 330 317 17 16 10 359 345 335 332 353 12 17 332 318 318 316 315 318 318 318 317 310 325 322
229 261 281 306 293 282 308 316 328 336 336 0 11 32 5 330 345 118 307 25 19 10 351 3 343 351 334 354 3 10 353 331 328 324 320 319 317 313 309 323 329 320 313
244 184 213 249 261 311 325 348 334 345 0 357 24 70 5 314 338 27 24 24 7 7 6 334 4 350 342 7 1 6 332 326 326 324 322 317 313 310 305 306 306 302 306
248 263 212 244 305 339 12 312 357 15 351 358 1 41 262 342 42 19 24 24 350 3 359 18 346 346 13 4 5 334 326 322 325 325 317 312 311 307 301 310 312 313 294
265 259 264 275 0 36 301 1 20 16 345 4 6 3 23 8 25 50 43 346 22 9 357 4 338 8 8 13 344 337 321 320 318 311 304 308 310 308 303 306 307 309 318
246 258 289 344 49 324 44 1 18 35 6 15 14 9 34 12 359 57 37 357 30 8 337 354 13 12 18 357 344 341 333 326 309 293 299 295 296 294 295 312 335 10 25
275 63 11 35 26 23 19 23 16 21 22 21 17 16 24 33 18 31 17 347 23 344 353 355 25 24 14 355 354 345 333 317 307 297 293 286 282 292 4 20 22 32 23
146 90 48 44 37 30 31 21 36 19 26 30 18 27 21 46 62 34 28 3 342 353 3 12 22 30 12 1 349 335 333 325 318 303 299 287 345 16 356 4 36 37 28